Volver al catálogo

DMSP 5D-3 F19 DEB

ActivoSSO
NORAD 43415·DEBRIS·🇺🇸 United States

Lanzado Apr 3, 2014 desde Vandenberg Space Force Base

Loading…

Próximos Pases (próximas 24 horas)

TLE

ActualizadoSource: Space-Track

Época: Sep 14, 2026, 06:46 UTC

1 43415U 14015E   26257.28197209  .00002726  00000-0  97731-3 0  9995
2 43415  98.6114 279.8258 0009605 149.4186 210.7561 14.34735110640913

Sigue DMSP 5D-3 F19 DEB en tiempo real con AllMySat

Download on the App Store